• In Russia
  • List of Countries
  • For 7 days
  • Water Temperature
  • Weather Map
  • Weather Widgets
  • user-avatar
    Login

    Hourly Weather Cardiff

    Today, 17 January, Friday

    Time Temperature Precipitation Wind Pressure Humidity
    00:00 +7°C° 0 mm 3 mps 753 mmHg 94%
    01:00 +7°C° 0.1 mm 3 mps 752 mmHg 95%
    02:00 +7°C° 0.1 mm 3 mps 752 mmHg 95%
    03:00 +6°C° 0.1 mm 4 mps 752 mmHg 95%
    04:00 +6°C° 0.3 mm 4 mps 752 mmHg 95%
    05:00 +6°C° 0.3 mm 4 mps 752 mmHg 95%
    06:00 +5°C° 0 mm 5 mps 752 mmHg 92%
    07:00 +4°C° 0.1 mm 7 mps 753 mmHg 91%
    08:00 +4°C° 0.1 mm 8 mps 754 mmHg 91%
    09:00 +3°C° 0.1 mm 10 mps 754 mmHg 90%
    10:00 +3°C° 0.2 mm 9 mps 756 mmHg 85%
    11:00 +5°C° 0.2 mm 8 mps 757 mmHg 80%
    12:00 +5°C° 0.2 mm 7 mps 758 mmHg 74%
    13:00 +5°C° 0.1 mm 7 mps 758 mmHg 75%
    14:00 +5°C° 0.1 mm 6 mps 758 mmHg 76%
    15:00 +6°C° 0.1 mm 5 mps 758 mmHg 77%
    16:00 +5°C° 0.2 mm 5 mps 759 mmHg 79%
    17:00 +3°C° 0.2 mm 5 mps 759 mmHg 81%
    18:00 +3°C° 0.2 mm 5 mps 760 mmHg 83%
    19:00 +3°C° 0 mm 4 mps 760 mmHg 84%
    20:00 +3°C° 0 mm 4 mps 761 mmHg 85%
    21:00 +3°C° 0 mm 4 mps 761 mmHg 86%
    22:00 +3°C° 0 mm 4 mps 762 mmHg 87%
    23:00 +2°C° 0 mm 3 mps 763 mmHg 88%

    Tomorrow, 18 January, Saturday

    Time Temperature Precipitation Wind Pressure Humidity
    00:00 +2°C° 0 mm 3 mps 764 mmHg 88%
    01:00 +2°C° 0 mm 3 mps 764 mmHg 88%
    02:00 +3°C° 0 mm 2 mps 765 mmHg 89%
    03:00 +2°C° 0 mm 2 mps 765 mmHg 89%
    04:00 +2°C° 0 mm 2 mps 766 mmHg 88%
    05:00 +2°C° 0 mm 2 mps 766 mmHg 87%
    06:00 +3°C° 0 mm 1 mps 767 mmHg 87%
    07:00 +3°C° 0 mm 1 mps 767 mmHg 85%
    08:00 +3°C° 0 mm 1 mps 768 mmHg 83%
    09:00 +3°C° 0 mm 1 mps 768 mmHg 81%
    10:00 +4°C° 0 mm 1 mps 769 mmHg 76%
    11:00 +6°C° 0 mm 1 mps 769 mmHg 72%
    12:00 +7°C° 0 mm 1 mps 770 mmHg 67%
    13:00 +7°C° 0 mm 1 mps 770 mmHg 69%
    14:00 +7°C° 0 mm 1 mps 771 mmHg 71%
    15:00 +7°C° 0 mm 1 mps 771 mmHg 73%
    16:00 +6°C° 0 mm 1 mps 772 mmHg 77%
    17:00 +5°C° 0 mm 1 mps 772 mmHg 81%
    18:00 +4°C° 0 mm 1 mps 773 mmHg 85%
    19:00 +3°C° 0 mm 1 mps 773 mmHg 84%
    20:00 +3°C° 0 mm 1 mps 774 mmHg 84%
    21:00 +3°C° 0 mm 1 mps 775 mmHg 84%
    22:00 +2°C° 0 mm 2 mps 775 mmHg 84%
    23:00 +2°C° 0 mm 2 mps 776 mmHg 84%

    Day after tomorrow, 19 January, Sunday

    Time Temperature Precipitation Wind Pressure Humidity
    00:00 +2°C° 0 mm 2 mps 777 mmHg 84%
    01:00 +2°C° 0 mm 2 mps 777 mmHg 84%
    02:00 +2°C° 0 mm 2 mps 778 mmHg 85%
    03:00 +2°C° 0 mm 2 mps 778 mmHg 85%
    04:00 +2°C° 0 mm 2 mps 778 mmHg 86%
    05:00 +2°C° 0 mm 2 mps 779 mmHg 87%
    06:00 +1°C° 0 mm 2 mps 779 mmHg 88%
    07:00 +2°C° 0 mm 2 mps 780 mmHg 87%
    08:00 +2°C° 0 mm 2 mps 781 mmHg 87%
    09:00 +2°C° 0 mm 2 mps 782 mmHg 86%
    10:00 +3°C° 0 mm 2 mps 782 mmHg 80%
    11:00 +5°C° 0 mm 2 mps 782 mmHg 74%
    12:00 +6°C° 0 mm 2 mps 782 mmHg 68%
    13:00 +7°C° 0 mm 1 mps 783 mmHg 69%
    14:00 +7°C° 0 mm 1 mps 783 mmHg 70%
    15:00 +7°C° 0 mm 1 mps 783 mmHg 71%
    16:00 +6°C° 0 mm 1 mps 783 mmHg 74%
    17:00 +5°C° 0 mm 1 mps 783 mmHg 77%
    18:00 +3°C° 0 mm 1 mps 783 mmHg 80%
    19:00 +3°C° 0 mm 1 mps 783 mmHg 78%
    20:00 +3°C° 0 mm 1 mps 784 mmHg 76%
    21:00 +3°C° 0 mm 1 mps 784 mmHg 74%
    22:00 +3°C° 0 mm 1 mps 784 mmHg 72%
    23:00 +3°C° 0 mm 1 mps 784 mmHg 70%

    20 January, Monday

    Time Temperature Precipitation Wind Pressure Humidity
    00:00 +3°C° 0 mm 1 mps 784 mmHg 69%
    01:00 +3°C° 0 mm 1 mps 784 mmHg 68%
    02:00 +3°C° 0 mm 1 mps 784 mmHg 67%
    03:00 +3°C° 0 mm 1 mps 784 mmHg 67%
    04:00 +3°C° 0 mm 1 mps 784 mmHg 67%
    05:00 +3°C° 0 mm 1 mps 783 mmHg 68%
    06:00 +2°C° 0 mm 1 mps 783 mmHg 68%
    07:00 +3°C° 0 mm 1 mps 783 mmHg 68%
    08:00 +3°C° 0 mm 1 mps 783 mmHg 68%
    09:00 +2°C° 0 mm 2 mps 783 mmHg 68%
    10:00 +4°C° 0 mm 1 mps 783 mmHg 65%
    11:00 +6°C° 0 mm 1 mps 783 mmHg 61%
    12:00 +7°C° 0 mm 1 mps 783 mmHg 58%
    13:00 +7°C° 0 mm 1 mps 783 mmHg 61%
    14:00 +7°C° 0 mm 1 mps 782 mmHg 64%
    15:00 +7°C° 0 mm 1 mps 782 mmHg 68%
    16:00 +5°C° 0 mm 2 mps 782 mmHg 70%
    17:00 +4°C° 0 mm 2 mps 781 mmHg 72%
    18:00 +2°C° 0 mm 2 mps 781 mmHg 74%
    19:00 +2°C° 0 mm 2 mps 781 mmHg 73%
    20:00 +2°C° 0 mm 2 mps 781 mmHg 73%
    21:00 +2°C° 0 mm 2 mps 781 mmHg 73%
    22:00 +2°C° 0 mm 2 mps 781 mmHg 74%
    23:00 +1°C° 0 mm 2 mps 781 mmHg 75%

    21 January, Tuesday

    Time Temperature Precipitation Wind Pressure Humidity
    00:00 +1°C° 0 mm 2 mps 781 mmHg 76%
    01:00 +1°C° 0 mm 2 mps 781 mmHg 76%
    02:00 +1°C° 0 mm 2 mps 780 mmHg 77%
    03:00 +1°C° 0 mm 2 mps 780 mmHg 77%
    04:00 +1°C° 0 mm 2 mps 780 mmHg 78%
    05:00 +1°C° 0 mm 2 mps 780 mmHg 78%
    06:00 +1°C° 0 mm 2 mps 779 mmHg 78%
    07:00 +2°C° 0 mm 1 mps 780 mmHg 79%
    08:00 +2°C° 0 mm 1 mps 780 mmHg 79%
    09:00 +2°C° 0 mm 1 mps 780 mmHg 80%
    10:00 +4°C° 0 mm 1 mps 779 mmHg 74%
    11:00 +5°C° 0 mm 1 mps 779 mmHg 68%
    12:00 +7°C° 0 mm 1 mps 779 mmHg 63%
    13:00 +7°C° 0 mm 1 mps 779 mmHg 65%
    14:00 +7°C° 0 mm 1 mps 778 mmHg 68%
    15:00 +7°C° 0 mm 1 mps 778 mmHg 70%
    16:00 +5°C° 0 mm 1 mps 778 mmHg 73%
    17:00 +4°C° 0 mm 1 mps 778 mmHg 75%
    18:00 +3°C° 0 mm 1 mps 778 mmHg 78%
    19:00 +2°C° 0 mm 1 mps 778 mmHg 77%
    20:00 +1°C° 0 mm 2 mps 778 mmHg 77%
    21:00 +1°C° 0 mm 2 mps 778 mmHg 77%
    22:00 +1°C° 0 mm 2 mps 777 mmHg 76%
    23:00 0°C° 0 mm 3 mps 777 mmHg 76%

    22 January, Wednesday

    Time Temperature Precipitation Wind Pressure Humidity
    00:00 0°C° 0 mm 3 mps 777 mmHg 76%
    01:00 0°C° 0 mm 3 mps 777 mmHg 81%
    02:00 0°C° 0 mm 3 mps 776 mmHg 85%
    03:00 0°C° 0 mm 3 mps 776 mmHg 89%
    04:00 0°C° 0 mm 3 mps 776 mmHg 91%
    05:00 -1°C° 0 mm 3 mps 775 mmHg 92%
    06:00 -1°C° 0 mm 3 mps 775 mmHg 94%
    07:00 -1°C° 0 mm 3 mps 775 mmHg 93%
    08:00 0°C° 0 mm 3 mps 775 mmHg 93%
    09:00 0°C° 0 mm 3 mps 775 mmHg 93%
    10:00 +1°C° 0 mm 3 mps 775 mmHg 87%
    11:00 +2°C° 0 mm 3 mps 775 mmHg 82%
    12:00 +3°C° 0 mm 4 mps 775 mmHg 77%
    13:00 +3°C° 0 mm 4 mps 774 mmHg 78%
    14:00 +4°C° 0 mm 3 mps 774 mmHg 79%
    15:00 +4°C° 0 mm 3 mps 773 mmHg 80%
    16:00 +2°C° 0 mm 3 mps 773 mmHg 83%
    17:00 +1°C° 0 mm 3 mps 773 mmHg 86%
    18:00 0°C° 0 mm 3 mps 773 mmHg 89%
    19:00 0°C° 0 mm 3 mps 773 mmHg 89%
    20:00 0°C° 0 mm 3 mps 773 mmHg 88%
    21:00 0°C° 0 mm 3 mps 773 mmHg 88%
    22:00 0°C° 0 mm 3 mps 773 mmHg 88%
    23:00 0°C° 0 mm 3 mps 772 mmHg 89%
    Show more